[[{"header":{"parameterUnit":"m.s-1","parameterCategory":1,"la1":30.2991,"la2":30.254,"lo1":-89.0895,"lo2":-89.0444,"dy":0.0017,"dx":0.0017,"nx":28,"ny":28,"refTime":"2023-04-27T21:00:00:Z","depth":0,"parameterNumber":2,"parameterNumberName":"U-component_of_WINDS"},"data":[0,0,0,0,0,0,0,0,0,0,0,0,0,0,0,0,0,0,0,0,0,0,0,0,0,0,0,0,0,0,0,0,0,0,0,0,0,0,0,0,0,0,0,0,0,0,0,0,0,0,0,0,0,0,0,0,0,0,1.5896,1.5895,0,1.5776,1.5775,1.5773,1.5795,1.5797,1.5799,1.5801,1.5675,1.567,1.5665,0,0,0,0,0,0,0,0,0,0,0,0,0,1.6142,1.6137,1.5896,1.5895,1.5893,1.5776,1.5775,1.5773,1.5794,1.5797,1.58,1.5802,1.5677,1.5671,1.5665,0,0,0,0,0,0,0,0,0,0,0,0,0,1.603,1.6136,1.5897,1.589,1.5888,1.5777,1.5775,1.5773,1.5794,1.5797,1.58,1.5803,1.5679,1.5672,1.5664,1.555,0,0,1.5639,1.5636,0,0,0,0,0,0,0,0,1.6036,1.6021,1.5892,1.589,1.5888,1.5804,1.5815,1.5698,1.5793,1.583,1.5801,1.5805,1.5715,1.5705,1.5675,1.5545,1.5539,1.5639,1.5634,1.563,1.5628,0,0,0,0,0,0,0,1.6044,1.6026,1.5849,1.5891,1.5888,1.5892,1.588,1.5793,1.5756,1.5827,1.5828,1.5813,1.5715,1.5683,1.5672,1.5537,1.5639,1.5632,1.5627,1.5624,1.5308,1.5304,0,0,0,0,0,0,1.6054,1.6032,1.5853,1.5845,1.5972,1.5885,1.5871,1.5827,1.5757,1.5749,1.5811,1.5815,1.5695,1.5682,1.5668,1.5531,1.563,1.5623,1.5618,1.5311,1.5307,1.5303,0,0,0,0,0,0,1.6059,1.6038,1.5857,1.5939,1.5916,1.5878,1.5828,1.5823,1.5791,1.5745,1.5738,1.5785,1.5697,1.5679,1.558,1.5527,1.5619,1.5612,1.5315,1.531,1.5305,1.5256,0,0,0,0,0,0,1.6066,1.604,1.5997,1.5938,1.5912,1.5772,1.5825,1.5819,1.5778,1.5782,1.5719,1.5712,1.5698,1.5591,1.5572,1.5517,1.5606,1.532,1.5313,1.5307,1.5262,1.5249,1.5238,0,0,0,0,0,1.6075,1.5987,1.5995,1.5973,1.5858,1.5769,1.5754,1.574,1.5774,1.573,1.57,1.5714,1.5536,1.5581,1.5559,1.5502,1.5323,1.5315,1.5307,1.5267,1.5252,1.5239,0,0,0,0,0,0,1.604,1.598,1.5987,1.5878,1.5828,1.5773,1.5717,1.5724,1.5664,1.567,1.5655,1.5641,1.554,1.5511,1.5562,1.5388,1.5434,1.5421,1.5411,1.5396,1.5385,1.5394,1.5599,0,0,0,0,0,1.602,1.5954,1.5904,1.5812,1.5787,1.5756,1.5717,1.5711,1.5659,1.5638,1.5601,1.5549,1.5481,1.5437,1.5372,1.5257,1.5244,1.5207,1.5195,1.5186,1.5175,1.5112,1.5095,1.5276,1.5276,1.5276,0,0,1.5978,1.5936,1.5895,1.5804,1.5765,1.5696,1.5739,1.5663,1.5612,1.5626,1.553,1.5501,1.5442,1.5334,1.5285,1.5307,1.5122,1.5175,1.5168,1.5163,1.5102,1.5085,1.507,1.5271,1.5272,1.5273,0,0,1.5865,1.5827,1.5747,1.5707,1.5647,1.5627,1.5608,1.555,1.5532,1.5435,1.5445,1.5382,1.5266,1.5224,1.5187,1.5057,1.5067,1.5036,1.4975,1.4914,1.49,1.4887,1.4841,1.4825,1.5025,1.5025,1.5025,0,1.5819,1.5716,1.5704,1.5628,1.5588,1.5598,1.5516,1.5477,1.5399,1.5371,1.5396,1.5251,1.5212,1.5094,1.5063,1.5032,1.5009,1.5044,1.4903,1.489,1.4878,1.4834,1.4817,1.5022,1.5022,1.5023,1.5023,0,1.5663,1.5592,1.5534,1.5459,1.5412,1.5333,1.5308,1.5262,1.5259,1.5236,1.5138,1.5091,1.5017,1.4988,1.4985,1.487,1.4885,1.4907,1.4953,1.4858,1.4816,1.4799,1.5017,1.5018,1.5019,1.502,0,0,1.5527,1.5446,1.5425,1.5391,1.5326,1.527,1.5191,1.5119,1.5079,1.5025,1.4958,1.4859,1.4879,1.4837,1.4829,1.4775,1.4675,1.4803,1.4801,1.4781,1.4545,1.453,1.4511,1.4681,1.4678,1.4675,1.455,0,1.5409,1.5271,1.5257,1.5134,1.5067,1.5075,1.5006,1.4958,1.4934,1.4873,1.4846,1.4777,1.4807,1.4782,1.4729,1.4699,1.4628,1.4707,1.4619,1.4616,1.4634,1.4489,1.4473,1.4357,1.4534,1.4531,1.4529,0,1.5253,1.5194,1.5064,1.5008,1.4979,1.4918,1.4851,1.4793,1.4738,1.4724,1.4677,1.4676,1.4594,1.4642,1.4529,1.4583,1.4546,1.4525,1.452,1.4512,1.4567,1.4477,1.432,1.4303,1.4503,1.4505,1.4507,0,1.5167,1.5055,1.4963,1.4934,1.4866,1.4822,1.4792,1.474,1.4698,1.4638,1.461,1.4542,1.4505,1.4451,1.4431,1.4468,1.4318,1.4365,1.4304,1.4305,1.4273,1.4276,1.4108,1.4248,1.4248,1.4248,1.4249,0,1.5037,1.4957,1.4924,1.4867,1.4778,1.4762,1.4673,1.4645,1.4598,1.4536,1.4538,1.4478,1.4455,1.4392,1.4375,1.4284,1.4267,1.4253,1.425,1.4253,1.4255,1.4229,1.4237,1.4244,1.4245,1.4246,1.4246,0,1.4926,1.4901,1.4801,1.4744,1.4728,1.4665,1.4616,1.4561,1.4537,1.4458,1.4438,1.4401,1.4326,1.4301,1.421,1.4199,1.4093,1.4096,1.4111,1.4111,1.4052,1.4058,1.3863,1.3836,1.3992,1.3991,1.399,0,1.4846,1.4785,1.4721,1.468,1.4648,1.4581,1.4538,1.4519,1.4473,1.4406,1.4359,1.4285,1.4225,1.4106,1.407,1.4,1.4002,1.3938,1.3992,1.3997,1.4002,1.4006,1.4,1.3929,1.3927,1.3926,1.3925,0,1.4705,1.4695,1.4634,1.4567,1.4515,1.4461,1.4409,1.4375,1.4348,1.4297,1.4221,1.4175,1.4082,1.4009,1.3938,1.3905,1.391,1.3908,1.3891,1.3894,1.3906,1.3899,1.4085,1.3913,1.3914,1.3915,1.3916,1.3916,1.4608,1.4554,1.4501,1.4431,1.439,1.4341,1.4287,1.4256,1.4193,1.4117,1.4109,1.4028,1.3973,1.3878,1.3842,1.3777,1.3795,1.3769,1.3763,1.3757,1.3753,1.3915,1.3764,1.3764,1.3765,1.3765,1.3765,0,1.4468,1.4434,1.437,1.4298,1.4243,1.4252,1.4195,1.4148,1.4077,1.4026,1.3967,1.3879,1.3808,1.3766,1.3694,1.365,1.3651,1.3632,1.3636,1.3628,1.3741,1.3764,1.3633,1.3633,1.3633,1.3633,1.3633,1.3633,1.4389,1.4298,1.4282,1.4171,1.4137,1.4058,1.4024,1.3978,1.3938,1.384,1.3781,1.3754,1.3707,1.3631,1.3566,1.3555,1.3529,1.3508,1.35,1.3606,1.362,1.3633,1.3654,1.3503,1.3502,1.3392,1.3391,1.339]},{"header":{"parameterUnit":"m.s-1","parameterCategory":1,"la1":30.2991,"la2":30.254,"lo1":-89.0895,"lo2":-89.0444,"dy":0.0017,"dx":0.0017,"nx":28,"ny":28,"refTime":"2023-04-27T21:00:00:Z","depth":0,"parameterNumber":3,"parameterNumberName":"V-component_of_WINDS"},"data":[0,0,0,0,0,0,0,0,0,0,0,0,0,0,0,0,0,0,0,0,0,0,0,0,0,0,0,0,0,0,0,0,0,0,0,0,0,0,0,0,0,0,0,0,0,0,0,0,0,0,0,0,0,0,0,0,0,0,1.7539,1.754,0,1.7597,1.7597,1.7598,1.7576,1.7575,1.7574,1.7573,1.7631,1.7633,1.7636,0,0,0,0,0,0,0,0,0,0,0,0,0,1.7409,1.7412,1.7539,1.754,1.7541,1.7597,1.7597,1.7598,1.7577,1.7575,1.7573,1.7572,1.763,1.7633,1.7636,0,0,0,0,0,0,0,0,0,0,0,0,0,1.7466,1.7412,1.7539,1.7537,1.7537,1.7596,1.7597,1.7598,1.7577,1.7575,1.7573,1.7571,1.7629,1.7633,1.7637,1.7702,0,0,1.7649,1.7651,0,0,0,0,0,0,0,0,1.7463,1.7471,1.7536,1.7537,1.7538,1.7577,1.7573,1.7633,1.7577,1.7562,1.7573,1.757,1.7614,1.762,1.7635,1.7704,1.7707,1.765,1.7652,1.7654,1.7655,0,0,0,0,0,0,0,1.7459,1.7468,1.7562,1.7537,1.7538,1.7532,1.7538,1.7584,1.7598,1.7563,1.7562,1.7569,1.7614,1.7631,1.7636,1.7708,1.765,1.7653,1.7656,1.7658,1.7831,1.7833,0,0,0,0,0,0,1.7455,1.7465,1.756,1.7564,1.7495,1.7536,1.7543,1.7567,1.7598,1.7601,1.757,1.7568,1.7625,1.7631,1.7638,1.7714,1.7654,1.7658,1.766,1.7829,1.7831,1.7833,0,0,0,0,0,0,1.7452,1.7464,1.7558,1.7514,1.7526,1.754,1.7567,1.7569,1.7585,1.7603,1.7606,1.7585,1.7623,1.7632,1.7685,1.7716,1.766,1.7664,1.7826,1.7829,1.7832,1.7867,0,0,0,0,0,0,1.7449,1.7463,1.7488,1.7515,1.7528,1.7605,1.7569,1.7571,1.7592,1.7589,1.7617,1.762,1.7622,1.7679,1.769,1.772,1.7667,1.7823,1.7827,1.7831,1.7864,1.7871,1.7878,0,0,0,0,0,1.7444,1.7496,1.749,1.7501,1.756,1.7607,1.7614,1.7616,1.7595,1.762,1.7631,1.7619,1.7711,1.7685,1.7696,1.7729,1.7821,1.7826,1.7831,1.786,1.787,1.7878,0,0,0,0,0,0,1.7473,1.75,1.7493,1.7555,1.7579,1.7603,1.7635,1.7627,1.7657,1.7653,1.7653,1.766,1.7714,1.7727,1.7698,1.7792,1.7763,1.777,1.7781,1.779,1.7798,1.7793,1.767,0,0,0,0,0,1.7487,1.7523,1.7544,1.7598,1.761,1.762,1.7641,1.764,1.7665,1.7675,1.769,1.7714,1.7748,1.777,1.7803,1.7866,1.787,1.7893,1.7901,1.7906,1.7912,1.7944,1.7954,1.7849,1.7849,1.7849,0,0,1.7516,1.7535,1.7558,1.7604,1.7622,1.7658,1.7629,1.767,1.7696,1.7681,1.7731,1.7743,1.777,1.7828,1.7854,1.784,1.7942,1.7912,1.7917,1.792,1.795,1.796,1.7968,1.7852,1.7852,1.7851,0,0,1.7586,1.7605,1.765,1.7669,1.7697,1.7703,1.7714,1.7739,1.7746,1.7797,1.7786,1.7817,1.7876,1.7895,1.7912,1.7988,1.7977,1.7998,1.8035,1.8066,1.8075,1.8082,1.8107,1.8116,1.8004,1.8004,1.8004,0,1.7618,1.7673,1.7675,1.7715,1.7735,1.7722,1.7767,1.7785,1.7822,1.7835,1.7819,1.7891,1.7909,1.7969,1.7988,1.8003,1.8014,1.7995,1.8073,1.8081,1.8087,1.8111,1.8121,1.8007,1.8006,1.8006,1.8006,0,1.771,1.7748,1.7781,1.7816,1.784,1.7883,1.7889,1.7913,1.791,1.7918,1.7968,1.7988,1.8023,1.8038,1.8036,1.8098,1.8088,1.8073,1.8043,1.81,1.8122,1.8131,1.801,1.8009,1.8008,1.8008,0,0,1.7801,1.7835,1.7847,1.7861,1.7891,1.792,1.7961,1.7995,1.8014,1.804,1.8073,1.8123,1.8108,1.8128,1.8127,1.8155,1.821,1.8136,1.8136,1.8147,1.8277,1.8287,1.8297,1.8204,1.8205,1.8207,1.8274,0,1.7871,1.7944,1.7945,1.8011,1.8045,1.8033,1.8069,1.809,1.8098,1.8127,1.8136,1.817,1.815,1.8161,1.8188,1.8198,1.8236,1.8193,1.8233,1.8234,1.8225,1.8309,1.832,1.8382,1.8283,1.8284,1.8285,0,1.7964,1.7992,1.8061,1.8083,1.8097,1.8129,1.8159,1.8188,1.8211,1.8215,1.8236,1.8231,1.8271,1.8242,1.8296,1.8267,1.8284,1.8291,1.8293,1.8296,1.8262,1.8312,1.8403,1.8411,1.8299,1.8298,1.8297,0,1.802,1.8075,1.8122,1.8136,1.8163,1.8186,1.8198,1.8219,1.8239,1.8265,1.8278,1.8309,1.8325,1.8349,1.8351,1.833,1.8406,1.8377,1.8408,1.8408,1.8424,1.8422,1.8517,1.8438,1.8438,1.8437,1.8437,0,1.8098,1.814,1.8148,1.8177,1.8223,1.8224,1.827,1.828,1.8299,1.8329,1.8321,1.8349,1.8352,1.8381,1.8384,1.8427,1.8436,1.8439,1.8438,1.8438,1.8437,1.8448,1.8443,1.844,1.8439,1.8439,1.8438,0,1.8168,1.8175,1.8225,1.8247,1.8253,1.8286,1.8304,1.8331,1.8338,1.8377,1.8385,1.8396,1.843,1.8435,1.8475,1.8476,1.8528,1.8524,1.852,1.8519,1.8549,1.8545,1.8652,1.8664,1.8579,1.858,1.8581,0,1.8216,1.8248,1.8272,1.8292,1.8305,1.8337,1.8357,1.8359,1.8379,1.8407,1.843,1.8463,1.8489,1.8542,1.8553,1.8583,1.8578,1.8614,1.8583,1.8581,1.8576,1.8573,1.8576,1.8619,1.862,1.8621,1.8621,0,1.83,1.8301,1.833,1.836,1.8383,1.8407,1.8429,1.8445,1.845,1.8473,1.8507,1.8527,1.8567,1.8598,1.8627,1.8639,1.863,1.8631,1.8639,1.8639,1.8634,1.8634,1.8534,1.8628,1.8628,1.8627,1.8627,1.8626,1.8359,1.8385,1.8406,1.8438,1.8455,1.8475,1.8501,1.8511,1.8539,1.8572,1.8571,1.8608,1.8628,1.8666,1.868,1.8707,1.8696,1.8709,1.8712,1.8714,1.8716,1.8631,1.8713,1.8713,1.8713,1.8713,1.8712,0,1.844,1.8453,1.8482,1.8513,1.8537,1.8527,1.8551,1.8572,1.8604,1.8624,1.8649,1.8687,1.8717,1.873,1.8759,1.8779,1.8775,1.8786,1.8784,1.8786,1.8726,1.8715,1.8788,1.8788,1.8788,1.8788,1.8788,1.8788,1.8485,1.8529,1.8533,1.8585,1.8597,1.8633,1.8647,1.8665,1.868,1.8723,1.8748,1.8756,1.8772,1.8803,1.8829,1.8832,1.8842,1.8855,1.8856,1.8799,1.8791,1.8783,1.8773,1.8857,1.8858,1.8913,1.8914,1.8914]}]]